Location: Altmatt
(47.1333°N, 8.7000°E)
Time: 18:03:32
(UTC+00:00)

Cosmos 1943 Rocket - Pass Details

Date: 13 July 2020
Orbit: 811 x 845 km, 71.0° (Epoch: 11 August)

Event Time Altitude Azimuth Distance (km) Brightness Sun altitude
Rises 22:03:18 0° 331° (NNW) 3,414 7.0 -18.4°
Reaches altitude 10° 22:05:45 10° 330° (NNW) 2,474 5.9 -18.6°
Maximum altitude 22:11:25 75° 247° (WSW) 872 2.2 -18.9°
Enters shadow 22:13:53 35° 168° (SSE) 1,332 2.7 -19.0°
